Date String (YYYY-MM-DD hh:mm:ss) UTC,Instrument flags,absolute air pressure of the measurement (hPa),sample flow rate (lpm),inlet stack bypass flow (lpm),air temperature of the measurement (°C),ambient temperature measured by the external sensor (°C),aerosol sample conditioner tube jacket temperature (°C),OPC LED temperature (°C),internal box temperature (°C),relative humidity of the measurement (%),span deviation,mass concentration of particles derived from Lorenz-Mie calculation of OPC scattering (μg/m³),mass concentration of particles derived from Lorenz-Mie calculation of OPC scattering (μg/m³),mass concentration of particles derived from Lorenz-Mie calculation of OPC scattering (μg/m³)
DateTimeUTC,F1_M11,P_M11,Q1_M11,Q2_M11,T1_M11,T2_M11,T3_M11,T4_M11,T5_M11,U1_M11,ZSPAN_M11,X2_M11,X0_M11,X1_M11
2024-02-21 12:00:00,SystemResetWarning,0825.8,4.99,000.00,023.3,022.6,000.0,031.8,025.1,17.9,0000.0,0002.17,0008.17,0001.64
2024-02-21 12:01:00,SystemResetWarning,0825.8,5.00,000.00,023.3,022.6,000.0,031.8,025.1,17.9,0000.0,0002.21,0008.48,0001.66
2024-02-21 12:02:00,SystemResetWarning,0825.8,4.99,000.00,023.3,022.6,000.0,031.8,025.1,17.9,0000.0,0002.28,0009.31,0001.69
2024-02-21 12:03:00,SystemResetWarning,0825.8,5.00,000.00,023.3,022.6,000.0,031.8,025.1,17.9,0000.0,0002.33,0009.34,0001.72
2024-02-21 12:04:00,SystemResetWarning,0825.8,5.00,000.00,023.3,022.6,000.0,031.8,025.1,17.7,0000.0,0002.35,0009.35,0001.75
2024-02-21 12:05:00,SystemResetWarning,0825.9,5.01,000.00,023.3,022.6,000.0,031.8,025.1,17.8,0000.0,0002.39,0008.53,0001.81
2024-02-21 12:06:00,SystemResetWarning,0825.9,5.00,000.00,023.3,022.6,000.0,031.8,025.1,17.8,0000.0,0002.46,0008.06,0001.86
2024-02-21 12:07:00,SystemResetWarning,0825.9,5.00,000.00,023.2,022.6,000.0,031.8,025.1,17.7,0000.0,0002.51,0008.49,0001.91
2024-02-21 12:08:00,SystemResetWarning,0825.9,5.00,000.00,023.2,022.5,000.0,031.7,025.1,17.8,0000.0,0002.57,0008.58,0001.95
2024-02-21 12:09:00,SystemResetWarning,0825.8,5.00,000.00,023.2,022.5,000.0,031.7,025.0,17.8,0000.0,0002.63,0008.47,0001.98
2024-02-21 12:10:00,SystemResetWarning,0825.8,4.99,000.00,023.2,022.5,000.0,031.7,025.0,17.8,0000.0,0002.60,0008.31,0002.01
2024-02-21 12:11:00,SystemResetWarning,0825.8,4.99,000.00,023.2,022.5,000.0,031.7,025.1,18.0,0000.0,0002.62,0007.54,0002.03
2024-02-21 12:12:00,SystemResetWarning,0825.8,5.00,000.00,023.2,022.5,000.0,031.7,025.0,18.0,0000.0,0002.63,0006.96,0002.06
2024-02-21 12:13:00,SystemResetWarning,0825.7,5.00,000.00,023.2,022.5,000.0,031.7,025.0,18.1,0000.0,0002.57,0005.12,0002.07
2024-02-21 12:14:00,SystemResetWarning,0825.7,5.01,000.00,023.2,022.5,000.0,031.7,025.0,18.2,0000.0,0002.59,0005.74,0002.09
2024-02-21 12:15:00,SystemResetWarning,0825.7,5.01,000.00,023.2,022.5,000.0,031.7,025.0,18.2,0000.0,0002.61,0006.42,0002.11
2024-02-21 12:16:00,SystemResetWarning,0825.7,5.00,000.00,023.2,022.5,000.0,031.7,025.0,18.2,0000.0,0002.58,0006.70,0002.10
2024-02-21 12:17:00,SystemResetWarning,0825.7,5.00,000.00,023.2,022.5,000.0,031.7,025.0,18.1,0000.0,0002.61,0006.90,0002.09
2024-02-21 12:18:00,SystemResetWarning,0825.7,5.00,000.00,023.2,022.5,000.0,031.7,025.0,18.2,0000.0,0002.60,0006.49,0002.08
2024-02-21 12:19:00,SystemResetWarning,0825.7,4.99,000.00,023.2,022.5,000.0,031.7,025.0,18.2,0000.0,0002.61,0007.62,0002.08
2024-02-21 12:20:00,SystemResetWarning,0825.7,4.99,000.00,023.2,022.5,000.0,031.7,025.0,18.2,0000.0,0002.59,0008.91,0002.10
2024-02-21 12:21:00,SystemResetWarning,0825.7,5.01,000.00,023.2,022.5,000.0,031.7,025.0,18.2,0000.0,0002.61,0009.34,0002.11
2024-02-21 12:22:00,SystemResetWarning,0825.8,5.01,000.00,023.2,022.4,000.0,031.7,025.0,18.0,0000.0,0002.64,0009.80,0002.15
2024-02-21 12:23:00,SystemResetWarning,0825.8,5.01,000.00,023.1,022.4,000.0,031.7,025.0,17.8,0000.0,0002.66,0009.72,0002.20
2024-02-21 12:24:00,SystemResetWarning,0825.8,5.00,000.00,023.1,022.4,000.0,031.7,025.0,17.8,0000.0,0002.72,0010.04,0002.24
2024-02-21 12:25:00,SystemResetWarning,0825.8,4.99,000.00,023.1,022.4,000.0,031.6,025.0,17.8,0000.0,0002.73,0009.91,0002.27
2024-02-21 12:26:00,SystemResetWarning,0825.8,4.99,000.00,023.1,022.4,000.0,031.6,025.0,17.7,0000.0,0002.72,0009.49,0002.28
2024-02-21 12:27:00,SystemResetWarning,0825.8,5.01,000.00,023.1,022.4,000.0,031.6,025.0,17.6,0000.0,0002.77,0009.28,0002.32
2024-02-21 12:28:00,SystemResetWarning,0825.6,5.01,000.00,023.1,022.4,000.0,031.6,024.9,17.6,0000.0,0002.77,0009.09,0002.36
2024-02-21 12:29:00,SystemResetWarning,0825.5,5.00,000.00,023.1,022.4,000.0,031.6,024.9,17.0,0000.0,0002.82,0009.01,0002.39
2024-02-21 12:30:00,SystemResetWarning,0825.5,4.99,000.00,023.1,022.4,000.0,031.6,024.9,16.6,0000.0,0002.88,0008.31,0002.37
2024-02-21 12:31:00,SystemResetWarning,0825.5,4.99,000.00,023.1,022.4,000.0,031.6,024.9,17.1,0000.0,0002.85,0006.90,0002.35
2024-02-21 12:32:00,SystemResetWarning,0825.5,5.00,000.00,023.1,022.4,000.0,031.6,024.9,17.4,0000.0,0002.84,0006.19,0002.33
2024-02-21 12:33:00,SystemResetWarning,0825.5,5.01,000.00,023.1,022.4,000.0,031.6,024.9,17.4,0000.0,0002.80,0005.28,0002.30
2024-02-21 12:34:00,SystemResetWarning,0825.5,5.00,000.00,023.1,022.3,000.0,031.6,024.9,17.3,0000.0,0002.77,0005.34,0002.24
2024-02-21 12:35:00,SystemResetWarning,0825.5,5.00,000.00,023.1,022.3,000.0,031.6,024.9,17.2,0000.0,0002.73,0005.13,0002.20
2024-02-21 12:36:00,SystemResetWarning,0825.5,5.00,000.00,023.1,022.3,000.0,031.6,024.9,17.2,0000.0,0002.69,0004.70,0002.16
2024-02-21 12:37:00,SystemResetWarning,0825.5,4.99,000.00,023.0,022.3,000.0,031.6,024.9,17.1,0000.0,0002.68,0005.21,0002.12
2024-02-21 12:38:00,SystemResetWarning,0825.5,5.00,000.00,023.0,022.3,000.0,031.6,024.9,17.0,0000.0,0002.57,0005.04,0002.02
2024-02-21 12:39:00,SystemResetWarning,0825.5,5.00,000.00,023.0,022.3,000.0,031.6,024.9,16.7,0000.0,0002.42,0004.85,0001.89
2024-02-21 12:40:00,SystemResetWarning,0825.5,5.00,000.00,023.0,022.3,000.0,031.5,024.9,17.0,0000.0,0002.31,0004.50,0001.82
2024-02-21 12:41:00,SystemResetWarning,0825.5,5.00,000.00,023.0,022.3,000.0,031.5,024.8,17.4,0000.0,0002.20,0004.28,0001.78
2024-02-21 12:42:00,SystemResetWarning,0825.4,5.00,000.00,023.0,022.3,000.0,031.5,024.8,17.5,0000.0,0002.11,0003.96,0001.74
2024-02-21 12:43:00,SystemResetWarning,0825.4,5.00,000.00,023.0,022.3,000.0,031.5,024.8,17.6,0000.0,0002.06,0003.78,0001.71
2024-02-21 12:44:00,SystemResetWarning,0825.4,5.00,000.00,023.0,022.3,000.0,031.5,024.8,17.5,0000.0,0002.06,0003.79,0001.67
2024-02-21 12:45:00,SystemResetWarning,0825.3,5.00,000.00,023.0,022.2,000.0,031.5,024.8,17.1,0000.0,0002.10,0003.86,0001.64
2024-02-21 12:46:00,SystemResetWarning,0825.3,4.99,000.00,023.0,022.2,000.0,031.5,024.8,17.0,0000.0,0002.08,0003.79,0001.59
2024-02-21 12:47:00,SystemResetWarning,0825.4,5.00,000.00,022.9,022.2,000.0,031.5,024.8,17.0,0000.0,0002.03,0003.58,0001.53
2024-02-21 12:48:00,SystemResetWarning,0825.3,5.00,000.00,022.9,022.2,000.0,031.5,024.7,17.1,0000.0,0001.96,0003.09,0001.45
2024-02-21 12:49:00,SystemResetWarning,0825.3,5.00,000.00,022.9,022.2,000.0,031.4,024.7,17.2,0000.0,0002.02,0003.20,0001.46
2024-02-21 12:50:00,SystemResetWarning,0825.3,4.99,000.00,022.9,022.2,000.0,031.4,024.7,17.3,0000.0,0002.12,0004.82,0001.51
2024-02-21 12:51:00,SystemResetWarning,0825.3,5.00,000.00,022.9,022.2,000.0,031.4,024.8,17.3,0000.0,0002.12,0004.82,0001.50
2024-02-21 12:52:00,SystemResetWarning,0825.3,5.00,000.00,022.9,022.2,000.0,031.4,024.7,17.3,0000.0,0002.13,0004.81,0001.49
2024-02-21 12:53:00,SystemResetWarning,0825.2,5.00,000.00,022.9,022.2,000.0,031.4,024.7,17.3,0000.0,0002.13,0004.98,0001.47
2024-02-21 12:54:00,SystemResetWarning,0825.3,5.00,000.00,022.9,022.2,000.0,031.4,024.7,17.0,0000.0,0002.08,0005.07,0001.43
2024-02-21 12:55:00,SystemResetWarning,0825.3,5.00,000.00,022.9,022.2,000.0,031.4,024.7,16.9,0000.0,0001.98,0004.89,0001.39
2024-02-21 12:56:00,SystemResetWarning,0825.4,5.00,000.00,022.9,022.2,000.0,031.4,024.7,17.0,0000.0,0001.86,0004.62,0001.36
2024-02-21 12:57:00,SystemResetWarning,0825.4,5.00,000.00,022.9,022.1,000.0,031.4,024.7,16.8,0000.0,0001.82,0004.54,0001.35
2024-02-21 12:58:00,SystemResetWarning,0825.4,5.00,000.00,022.8,022.1,000.0,031.4,024.7,17.0,0000.0,0001.80,0004.57,0001.35
2024-02-21 12:59:00,SystemResetWarning,0825.4,4.99,000.00,022.8,022.1,000.0,031.4,024.6,16.9,0000.0,0001.81,0004.74,0001.38
